Location: Chochol
(49.7771°N, 14.9780°E)
Time: 17:52:30
(UTC+00:00)

CZ-2C R/B - Pass Details

Date: 09 April 2020
Orbit: 639 x 705 km, 98.4° (Epoch: 04 June)

Event Time Altitude Azimuth Distance (km) Brightness Sun altitude
Rises 18:47:09 0° 17° (NNE) 3,087 7.3 -10.3°
Reaches altitude 10° 18:49:28 10° 22° (NNE) 2,157 6.4 -10.6°
Maximum altitude 18:54:07 57° 101° (E) 803 3.8 -11.3°
Drops below altitude 10° 18:58:39 10° 181° (S) 2,100 6.0 -12.0°
Sets 19:00:53 0° 185° (S) 2,999 6.8 -12.3°
